Location: Buchloe
(48.0161°N, 10.7316°E)
Time: 13:48:52
(UTC+02:00)

ISS - Pass Details

Date: 23 May 2018
Orbit: 402 x 407 km, 51.6° (Epoch: 26 May)

Event Time Altitude Azimuth Distance (km) Brightness Sun altitude
Rises 03:48:45 0° 290° (WNW) 2,318 -0.2 -13.2°
Reaches altitude 10° 03:50:58 10° 279° (W) 1,456 -1.3 -12.9°
Maximum altitude 03:53:53 30° 216° (SW) 742 -3.1 -12.6°
Drops below altitude 10° 03:56:47 10° 153° (SSE) 1,448 -1.3 -12.3°
Sets 03:58:59 0° 142° (SE) 2,304 -0.1 -12.1°
